Weather History for KFWN - September, 2013

Change the Weather History Date:

Friday, September 20, 2013

  Actual Average Record
Temperature  
Mean Temperature 61 °F -  
Max Temperature 78 °F 73 °F 93 °F (1983)
Min Temperature 44 °F 47 °F 29 °F (1993)
Degree Days  
Heating Degree Days 4    
Growing Degree Days 11 (Base 50)    
Moisture  
Dew Point 53 °F    
Average Humidity 82    
Maximum Humidity 100    
Minimum Humidity 48    
Precipitation  
Precipitation 0.00 in - - ()
Sea Level Pressure  
Sea Level Pressure 30.05 in    
Wind  
Wind Speed 1 mph (South)    
Max Wind Speed 7 mph    
Max Gust Speed -    
Visibility 10 miles    
Events      
Averages and records for this station are not official NWS values.
T = Trace of Precipitation, MM = Missing Value Source: NWS Daily Summary

Daily Weather History Graph

Daily Weather History Graph

Search for Another Location

Airport or City:

Trip Planner

Search our weather history database for the weather conditions in past years. The results will help you decide how hot, cold, wet, or windy it might be!

Date:

Astronomy

Sep. 20, 2013 Rise Set
Actual Time 6:44 AM EDT 6:58 PM EDT
Civil Twilight 6:16 AM EDT 7:26 PM EDT
Nautical Twilight 5:44 AM EDT 7:58 PM EDT
Astronomical Twilight 5:11 AM EDT 8:31 PM EDT
Moon 7:29 PM EDT (9/20) 7:57 AM EDT (9/20)
Length of Visible Light 13h 09m
Length of Day
12h 14m
Full, 98% of the Moon is Illuminated
Sep 20
Full
Sep 26
Last Quarter
Oct 4
New
Oct 11
First Quarter
Oct 18
Full

Hourly Weather History & Observations

Time (EDT) Temp. Dew Point Humidity Pressure Visibility Wind Dir Wind Speed Gust Speed Precip Events Conditions
12:53 AM 46.9 °F 46.9 °F 100% 30.09 in 9.0 mi Calm Calm - N/A   Clear
1:53 AM 46.9 °F 46.9 °F 100% 30.09 in 9.0 mi Calm Calm - N/A   Clear
2:53 AM 45.0 °F 45.0 °F 100% 30.09 in 9.0 mi Calm Calm - N/A   Clear
3:53 AM 45.0 °F 44.1 °F 97% 30.09 in 9.0 mi Calm Calm - N/A   Clear
4:53 AM 45.0 °F 44.1 °F 97% 30.09 in 10.0 mi Calm Calm - N/A   Clear
5:53 AM 44.1 °F 43.0 °F 96% 30.09 in 10.0 mi Calm Calm - N/A   Clear
6:53 AM 44.1 °F 43.0 °F 96% 30.10 in 9.0 mi Calm Calm - N/A   Clear
7:53 AM 46.0 °F 46.0 °F 100% 30.10 in 10.0 mi Calm Calm - N/A   Clear
8:53 AM 54.0 °F 53.1 °F 97% 30.10 in 10.0 mi Calm Calm - N/A   Clear
9:53 AM 63.0 °F 57.0 °F 81% 30.10 in 10.0 mi Calm Calm - N/A   Clear
10:53 AM 68.0 °F 57.9 °F 70% 30.09 in 10.0 mi South 3.5 mph - N/A   Clear
11:53 AM 72.0 °F 57.9 °F 61% 30.07 in 10.0 mi Calm Calm - N/A   Clear
12:53 PM 73.9 °F 55.9 °F 53% 30.06 in 10.0 mi Calm Calm - N/A   Clear
1:53 PM 75.9 °F 55.9 °F 50% 30.03 in 10.0 mi Variable 4.6 mph - N/A   Clear
2:53 PM 78.1 °F 57.0 °F 48% 30.01 in 10.0 mi Variable 6.9 mph - N/A   Clear
3:53 PM 75.9 °F 57.0 °F 52% 30.00 in 10.0 mi Variable 5.8 mph - N/A   Clear
4:53 PM 75.9 °F 59.0 °F 56% 30.00 in 10.0 mi Variable 3.5 mph - N/A   Partly Cloudy
5:53 PM 73.0 °F 55.9 °F 55% 30.00 in 10.0 mi South 3.5 mph - N/A   Clear
6:53 PM 66.0 °F 59.0 °F 78% 29.99 in 10.0 mi Calm Calm - N/A   Clear
7:53 PM 59.0 °F 57.0 °F 93% 29.99 in 10.0 mi Calm Calm - N/A   Clear
8:53 PM 57.9 °F 55.9 °F 93% 30.00 in 10.0 mi Calm Calm - N/A   Clear
9:53 PM 57.0 °F 55.0 °F 93% 30.00 in 10.0 mi Calm Calm - N/A   Clear
10:53 PM 55.9 °F 55.0 °F 97% 30.00 in 9.0 mi Calm Calm - N/A   Clear
11:53 PM 54.0 °F 54.0 °F 100% 30.01 in 5.0 mi Calm Calm - N/A   Clear